Location: Northam
(31.6525°S, 116.6655°E)
Time: 11:25:52
(UTC+08:00)

X-37B - Pass Details

Date: 26 January 2021
Orbit: 383 x 391 km, 45.0° (Epoch: 27 February)

Event Time Altitude Azimuth Distance (km) Brightness Sun altitude
Exits shadow 03:42:03 39° 197° (SSW) 610 1.7 -21.1°
Drops below altitude 10° 03:44:51 10° 139° (SE) 1,433 4.6 -20.6°
Sets 03:47:01 0° 131° (SE) 2,291 6.1 -20.2°
